Location: Ermatingen
(47.6706°N, 9.0857°E)
Time: 05:44:31
(UTC+00:00)

Cosmos 1655 Rocket - Pass Details

Date: 18 September 2020
Orbit: 971 x 1005 km, 82.9° (Epoch: 27 October)

Event Time Altitude Azimuth Distance (km) Brightness Sun altitude
Rises 21:04:40 0° 349° (NNW) 3,686 7.8 -33.0°
Reaches altitude 10° 21:07:11 10° 347° (NNW) 2,737 7.0 -33.3°
Enters shadow 21:12:32 61° 310° (NW) 1,109 4.4 -33.9°
